Погода в Вотланах

Россия / Чувашская Республика     55°44′03″N   46°52′21″E
темп.,
°C
ветер,
м/с
пор.,
м/с
влажн.,
%
обл.,
%
осадки,
мм/ч
давл.,
гПа
погр.,
м
14 июня, пн
пн1400:00+15ю36945 0.0 1012111
03:00+14ююз379690 0.0 1013125
06:00+17юз369256 0.0 1014206
09:00+21зюз45752 0.0 1015686
12:00+23з3464100 0.0 10151232
15:00+24з3463100 0.0 10151371
18:00+22ююз2379100 0.3 101489
21:00+17зюз228913 0.3 101519
15 июня, вт
вт1500:00+16юз228943 0.0 101511
03:00+15юз11901 0.0 101411
06:00+18ююз11852 0.0 1015103
09:00+22юв227223 0.1 1015612
12:00+24юв336461 0.1 10141291
15:00+24ююв3367100 0.8 10131072
18:00+22юв258267 0.4 1012281
21:00+19вюв368683 0.4 1011127
16 июня, ср
ср1600:00+16в2289100 0.2 101015
03:00+15св3489100 0.2 100955
06:00+18св479078 0.0 1008214
09:00+23св347558 0.0 1007557
12:00+25ссв23656 0.0 10061084
15:00+25сз447011 1.6 1006876
18:00+18ссз7149148 3.4 1008543
21:00+16ссз7139111 3.4 1011595
17 июня, чт
чт1700:00+12ссз411930 0.0 1014259
03:00+11сз35945 0.0 101685
06:00+14сз47830 0.0 1017271
09:00+17ссз57635 0.0 1019726
12:00+20ссз475113 0.0 10192166
15:00+19ссз4661100 0.0 10191047
18:00+18ссз356955 0.0 1020339
21:00+15зсз226893 0.0 102124
18 июня, пт
пт1800:00+15сз336543 0.0 102266
03:00+11с36835 0.0 102481
06:00+14с48784 0.0 1026238
09:00+17с57610 0.0 1026884
12:00+19ссз45525 0.0 10261403
15:00+21с25475 0.0 10261496
18:00+21зюз2265100 0.0 102583
21:00+16зюз458071 0.0 102676